sat.trackr.live / text

‹ back to catalog

STARLINK-34857

NORAD 65102 · 2025-167AA

PAYLOAD ACTIVE UNKNOWN

§ Identity

Operator
Country
US
Launch date
2025-08-04
Launch site
AFETR
Launch vehicle
Mass (kg)
RCS (m²)

Purposes: comms

External: N2YO · Heavens-Above · Gunter

§ Orbital elements

Epoch: 2026-05-25T01:44:47.898240Z

Period
93.37 min
Inclination
53.1607°
Eccentricity
0.0001038
Mean motion
15.42174008 rev/d
Perigee alt
439.0 km
Apogee alt
440.4 km
Semi-major
6,817.8 km
B*
7.4026e-4
RAAN
29.0760°
Arg perigee
81.2645°
Mean anomaly
278.8478°
Rev number
4,520

§ Raw data

STARLINK-348571 65102U 25167AA  26145.07277660  .00031951  00000+0  74026-3 0  99982 65102  53.1607  29.0760 0001038  81.2645 278.8478 15.42174008 45207

JSON: /api/v1/satellites/65102 · /tle

For live sub-satellite position, see the globe view (requires WebGL).

§ Visibility from observer

Set your observer location to see the next 7 days of passes ≥ 10°. The values pass through the URL so the page stays shareable.

No JS? Fill the form by hand. The geolocation button needs JavaScript.